Location: Cuiry
(49.3858°N, 3.7708°E)
Time: 00:34:49
(UTC+00:00)

Cosmos 968 Rocket - Pass Details

Date: 12 January 2026
Orbit: 737 x 764 km, 74.0° (Epoch: 18 February)

Event Time Altitude Azimuth Distance (km) Brightness Sun altitude
Rises 17:00:08 0° 341° (NNW) 3,219 6.7 -8.0°
Reaches altitude 10° 17:02:45 10° 351° (N) 2,285 5.8 -8.4°
Maximum altitude 17:07:24 33° 55° (NE) 1,250 4.1 -9.1°
Drops below altitude 10° 17:12:00 10° 119° (ESE) 2,256 5.6 -9.8°
Sets 17:14:34 0° 129° (SE) 3,171 6.4 -10.2°
